Wind_Speed
19 19 18 18 18 17 15 14 12 12 13 16 16 14 9 6 6 6 6 9 14 13 16 17 21 18 16 13 14 10 6 2 4 4 8 15 7 7 3 9 9 9 11 25 37
20 20 20 20 19 19 17 14 12 12 14 16 16 10 11 6 5 10 12 15 17 19 20 23 24 20 19 20 9 9 8 5 12 9 8 16 18 17 11 12 11 11 21 32 39
20 20 20 20 20 19 18 15 13 12 14 15 14 8 12 4 2 5 12 13 20 22 19 20 18 19 20 16 19 13 12 12 8 7 13 5 6 15 12 12 16 17 30 36 39
21 21 20 21 21 19 17 15 14 14 16 13 7 12 9 5 0 4 6 10 19 24 19 21 20 21 19 16 19 15 12 5 4 11 13 7 13 10 11 2 15 22 29 37 38
21 21 21 20 20 19 17 15 15 16 14 9 10 8 2 7 1 7 6 10 19 28 23 24 22 21 17 17 13 16 11 4 10 11 13 13 4 3 22 13 20 27 29 36 35
22 22 22 21 20 19 17 15 15 15 11 9 10 4 3 11 3 6 1 10 22 26 23 23 19 21 12 17 15 7 17 6 9 14 12 14 10 13 13 18 23 28 29 34 34
23 23 23 23 21 18 17 16 13 12 7 6 5 9 5 3 3 1 4 11 19 22 22 21 16 18 13 14 16 18 10 15 21 13 12 11 15 13 14 22 24 27 28 33 33
24 24 23 24 22 18 16 15 10 6 1 4 6 4 2 0 2 1 6 12 15 18 18 18 16 15 19 10 8 16 16 15 18 14 17 14 9 17 21 24 25 26 27 32 32
23 23 23 23 21 16 15 12 2 6 6 6 2 3 7 4 2 4 6 12 16 14 17 16 15 18 20 13 13 15 14 20 12 22 14 14 3 17 24 23 24 25 28 32 33
23 21 20 19 15 14 14 7 1 4 2 2 2 7 3 2 1 3 7 11 17 13 16 15 13 16 16 15 15 17 18 17 15 22 20 15 13 22 24 23 22 24 27 32 34
23 20 18 15 10 11 12 8 4 4 9 6 5 3 5 2 2 3 9 14 16 16 16 22 14 18 20 19 20 20 14 19 18 15 15 15 13 30 19 20 23 24 27 31 34
22 18 15 12 6 9 12 4 4 5 6 4 2 3 3 3 6 5 10 15 14 17 19 13 20 19 17 17 17 19 14 16 18 15 12 9 16 11 20 18 23 25 27 30 32
21 17 12 8 4 7 3 5 5 3 8 10 5 3 4 5 1 4 7 13 13 19 20 20 10 20 20 18 16 18 18 16 14 14 15 10 12 17 17 22 22 23 25 29 34
24 18 11 4 2 4 1 8 6 4 6 13 10 5 5 4 7 2 1 7 11 16 19 21 22 8 19 20 17 18 17 18 17 16 12 19 12 17 14 20 20 24 27 29 32
22 18 10 5 4 4 7 8 2 4 6 7 8 2 4 9 4 7 3 7 13 13 11 17 18 22 17 20 17 17 16 16 17 18 16 19 18 17 21 16 23 24 28 29 32
21 15 4 3 3 4 7 5 3 7 4 7 4 4 10 5 4 0 4 6 6 9 13 17 15 16 21 17 16 16 17 15 14 15 18 24 18 21 15 16 24 27 31 30 31
19 10 1 5 3 7 6 4 7 9 3 8 5 6 5 5 7 3 3 10 9 11 15 18 20 17 14 17 22 17 16 13 14 14 19 24 24 18 23 27 14 23 33 34 32
16 4 4 1 6 5 5 9 9 4 5 5 1 4 9 3 8 4 8 10 9 12 13 14 16 21 19 21 19 24 22 15 22 15 20 24 26 23 25 19 14 19 38 35 33
8 4 1 6 5 3 10 9 4 8 7 3 7 10 11 6 6 3 9 11 4 3 12 9 20 5 6 19 21 22 24 25 25 24 17 19 26 24 26 26 26 32 24 36 37
5 3 3 8 4 5 7 11 4 7 6 6 10 1 8 9 4 8 6 6 2 3 8 8 13 13 5 9 18 21 18 21 18 24 27 20 22 19 27 24 26 20 18 22 27
3 7 4 9 2 11 7 6 4 5 7 4 6 9 6 10 5 13 7 5 4 3 8 14 8 16 17 12 19 16 20 18 18 23 21 19 17 15 21 25 24 24 28 24 27
3 3 11 4 12 4 6 5 3 4 1 6 4 8 10 11 11 10 12 5 8 6 9 6 10 14 21 13 18 24 22 26 18 22 21 21 16 14 13 21 24 24 29 36 31
7 4 11 6 4 5 4 3 3 4 5 5 5 4 9 9 9 10 13 3 4 8 4 7 10 13 17 15 16 16 21 16 20 26 24 20 20 22 3 9 11 23 32 30 35
7 1 5 13 8 5 0 4 3 5 3 6 9 10 10 12 11 8 11 3 7 12 6 4 13 15 14 8 11 14 24 23 20 16 21 24 21 26 9 4 11 17 24 30 30
7 5 4 7 7 6 6 2 1 7 7 5 3 6 7 7 10 13 12 12 10 8 8 10 16 16 17 18 13 16 15 13 18 14 18 21 25 23 15 13 8 7 11 17 16
6 3 6 9 7 3 5 10 11 4 8 5 7 9 8 11 11 14 9 11 14 10 14 14 17 15 18 16 15 18 19 18 21 20 20 24 26 21 23 17 16 9 11 5 8
6 5 5 3 10 6 7 6 6 9 2 5 7 9 8 10 13 15 19 17 14 14 12 14 13 14 19 17 18 20 21 20 22 23 22 22 23 20 19 10 19 15 11 4 11
Wind_Direction
7 5 1 357 354 350 345 339 331 324 324 327 333 349 345 278 282 241 223 217 211 183 171 172 176 188 196 203 230 256 259 323 71 168 114 138 134 155 107 158 164 176 156 156 157
2 359 354 347 346 347 345 337 329 326 322 325 328 323 351 317 282 244 240 215 192 171 163 174 181 189 201 205 224 230 265 265 116 159 126 154 150 161 164 174 150 149 124 149 157
357 355 351 344 339 339 341 337 331 330 323 326 325 320 326 312 282 171 222 201 184 177 176 183 186 192 209 215 203 217 265 17 74 98 153 258 39 184 159 185 155 147 145 156 162
352 349 346 342 338 335 335 334 329 327 323 326 322 321 328 163 284 199 251 208 187 172 187 191 194 201 217 209 225 253 238 102 198 164 165 166 176 187 164 49 145 148 156 161 167
348 345 342 339 336 334 329 329 326 322 322 320 316 314 152 208 124 310 271 207 186 177 190 195 200 206 221 226 226 231 236 290 183 195 150 161 217 184 132 126 133 148 157 165 169
347 343 341 338 335 332 329 326 323 323 323 319 306 282 154 235 352 331 281 186 183 182 193 198 208 211 247 252 238 248 235 188 214 220 196 194 188 218 140 131 140 153 160 168 172
345 343 340 337 333 330 328 326 320 315 330 356 86 123 248 104 9 37 143 161 176 183 195 198 206 216 231 252 239 254 258 208 189 197 254 238 224 202 134 147 151 159 165 172 176
343 342 340 337 332 330 329 327 317 324 329 100 130 79 54 275 241 76 162 171 186 191 202 201 207 240 235 260 257 236 238 235 211 190 228 238 227 162 157 157 159 163 170 174 179
339 339 339 336 333 336 335 327 278 27 108 161 26 272 121 350 169 192 169 180 174 192 204 205 223 231 231 236 238 210 229 226 194 184 216 217 46 300 164 161 159 164 172 177 180
337 338 339 337 339 347 349 25 283 7 144 78 252 246 155 119 128 187 189 179 177 175 191 196 218 229 225 215 230 211 219 223 205 202 213 213 175 243 172 166 159 167 173 179 183
336 339 341 339 348 9 25 342 266 209 221 322 62 61 120 142 86 157 152 164 179 190 197 198 214 214 214 230 245 270 227 233 213 165 216 211 190 217 170 169 158 171 175 182 185
334 338 339 337 356 36 28 25 15 325 264 201 176 135 149 164 154 119 179 193 202 207 211 183 222 226 230 240 235 256 259 262 236 168 196 235 234 202 171 175 166 174 177 184 184
335 337 337 331 341 16 14 17 326 315 253 167 202 216 164 225 220 102 227 221 212 212 205 225 207 217 233 232 238 236 240 244 253 176 221 229 251 233 185 172 167 176 180 184 187
334 334 331 310 288 325 194 338 322 225 264 144 203 165 203 227 187 180 219 266 226 235 229 224 242 205 223 233 228 238 225 256 255 258 225 218 231 248 166 184 170 179 183 185 188
332 330 323 245 260 310 302 326 280 203 269 141 127 99 194 217 93 148 218 229 258 218 249 226 227 237 222 232 225 246 255 229 236 253 263 249 233 205 202 198 178 184 188 189 190
333 329 338 358 286 295 321 309 173 229 232 129 138 170 202 196 168 66 220 228 305 283 264 265 253 234 240 219 231 243 245 256 253 235 239 237 222 239 192 208 198 190 189 194 192
333 331 208 152 269 304 313 238 230 244 120 137 159 201 242 142 171 254 229 213 242 231 228 227 237 249 240 238 216 217 222 224 226 224 235 226 236 239 179 211 222 199 196 190 194
340 9 30 226 311 295 285 241 254 16 54 62 176 181 243 137 193 232 247 248 194 272 286 277 217 211 218 230 230 216 225 233 221 218 231 227 225 226 249 189 195 253 204 192 192
11 18 18 305 299 254 262 236 283 39 18 261 188 254 218 200 280 219 240 288 3 324 284 283 246 112 273 211 236 236 217 236 254 258 250 215 220 241 222 236 174 226 186 193 187
359 241 11 344 297 235 248 275 58 5 332 274 271 292 284 183 218 192 271 83 254 279 303 286 279 269 213 241 260 246 237 222 237 248 254 248 230 212 216 228 227 227 250 165 229
21 247 7 341 280 225 253 62 80 89 344 298 298 288 254 292 245 279 279 102 223 215 278 287 263 263 245 200 239 219 247 256 262 224 246 247 241 231 204 209 228 222 212 232 206
292 267 351 351 247 301 31 22 5 332 292 301 296 287 289 296 283 254 258 273 73 300 275 238 278 252 250 218 235 253 243 230 242 238 228 251 249 251 222 200 204 232 220 223 224
333 20 7 321 290 111 106 106 325 340 350 335 307 316 327 296 281 261 263 258 126 250 279 324 234 250 247 259 264 260 249 250 257 250 244 227 234 254 46 229 224 216 227 225 227
306 193 89 51 37 10 180 49 68 82 327 334 308 311 286 278 267 259 263 213 227 241 37 292 270 272 270 337 334 254 232 248 249 254 246 247 239 238 181 244 237 245 218 231 215
2 55 4 15 48 44 23 70 30 20 10 310 4 5 332 292 291 278 267 252 225 206 233 243 258 264 268 282 277 282 286 264 264 251 255 251 247 261 248 203 204 232 230 243 247
357 29 83 60 34 351 7 24 41 7 343 14 350 344 324 299 284 291 281 300 281 234 239 241 260 269 277 272 271 262 256 246 252 254 260 269 276 284 317 276 285 210 265 191 233
48 67 330 359 51 18 30 22 342 343 320 322 319 309 294 277 288 297 285 278 234 273 276 267 267 271 257 245 248 247 239 244 249 244 249 249 252 269 268 287 263 265 253 220 235
Height
1528 1525 1522 1518 1515 1512 1510 1507 1505 1502 1500 1497 1496 1493 1490 1490 1490 1490 1493 1494 1494 1495 1498 1502 1506 1508 1509 1510 1509 1508 1503 1495 1501 1494 1488 1497 1501 1505 1505 1507 1508 1510 1512 1520 1529
1528 1525 1521 1517 1514 1511 1508 1505 1503 1501 1498 1496 1493 1492 1491 1489 1488 1491 1490 1488 1491 1494 1497 1501 1503 1506 1506 1504 1506 1506 1490 1504 1481 1488 1485 1489 1496 1499 1504 1503 1504 1510 1514 1522 1530
1528 1524 1520 1516 1512 1509 1506 1503 1501 1499 1496 1494 1491 1490 1489 1488 1490 1487 1486 1487 1489 1493 1498 1502 1503 1504 1501 1498 1498 1493 1488 1480 1486 1488 1492 1491 1494 1491 1493 1494 1500 1507 1516 1523 1529
1527 1523 1519 1514 1510 1507 1504 1501 1499 1497 1494 1492 1489 1488 1487 1487 1482 1486 1485 1485 1488 1492 1497 1500 1501 1501 1496 1492 1490 1490 1484 1486 1492 1489 1493 1492 1491 1485 1489 1496 1498 1507 1518 1524 1529
1526 1521 1517 1513 1509 1505 1502 1499 1496 1494 1492 1490 1488 1486 1486 1488 1485 1486 1483 1484 1486 1490 1495 1497 1498 1497 1491 1487 1485 1485 1483 1486 1488 1488 1489 1490 1487 1486 1486 1491 1499 1509 1518 1524 1530
1524 1519 1515 1511 1507 1503 1500 1497 1494 1491 1489 1488 1485 1484 1485 1483 1485 1484 1483 1481 1485 1491 1494 1496 1496 1496 1490 1485 1484 1479 1483 1489 1491 1484 1482 1484 1483 1482 1483 1493 1502 1510 1518 1523 1529
1522 1518 1513 1508 1504 1501 1498 1495 1492 1489 1488 1486 1484 1483 1486 1485 1486 1485 1485 1485 1488 1492 1493 1495 1495 1495 1494 1486 1486 1483 1483 1480 1485 1486 1480 1478 1478 1475 1483 1491 1502 1509 1516 1522 1528
1520 1515 1510 1505 1501 1498 1496 1493 1490 1488 1487 1486 1486 1485 1485 1486 1486 1486 1486 1487 1490 1492 1493 1495 1496 1495 1491 1486 1486 1482 1479 1478 1471 1480 1479 1480 1478 1469 1483 1488 1498 1506 1513 1520 1526
1518 1513 1508 1503 1499 1496 1494 1490 1489 1487 1487 1487 1487 1486 1482 1485 1485 1485 1486 1487 1489 1492 1494 1495 1496 1496 1491 1489 1484 1476 1478 1475 1469 1475 1473 1478 1484 1482 1481 1487 1492 1501 1510 1517 1524
1516 1511 1507 1502 1498 1495 1492 1490 1488 1488 1487 1487 1487 1488 1484 1485 1484 1485 1485 1487 1489 1491 1494 1495 1495 1488 1483 1481 1482 1471 1473 1458 1463 1465 1467 1469 1481 1488 1480 1482 1487 1496 1506 1513 1520
1513 1510 1505 1501 1498 1496 1493 1490 1492 1490 1487 1485 1482 1481 1484 1485 1484 1484 1484 1486 1488 1489 1486 1490 1488 1480 1472 1473 1466 1455 1454 1460 1447 1454 1463 1467 1475 1478 1474 1478 1482 1492 1502 1509 1516
1511 1508 1504 1500 1498 1496 1494 1494 1494 1496 1487 1486 1485 1483 1484 1484 1482 1484 1486 1485 1485 1482 1481 1480 1479 1472 1470 1467 1469 1466 1466 1458 1448 1449 1463 1470 1468 1460 1466 1469 1477 1487 1497 1506 1513
1509 1506 1503 1500 1498 1496 1497 1496 1494 1494 1488 1481 1483 1482 1483 1484 1481 1483 1484 1481 1478 1477 1472 1470 1465 1470 1469 1470 1472 1470 1470 1463 1458 1452 1454 1460 1469 1457 1461 1460 1473 1484 1493 1501 1506
1507 1503 1501 1499 1499 1497 1496 1495 1494 1493 1479 1473 1480 1481 1482 1481 1481 1485 1484 1483 1474 1470 1467 1466 1464 1467 1469 1469 1469 1473 1465 1466 1463 1460 1470 1456 1484 1461 1470 1453 1464 1478 1487 1493 1501
1504 1501 1498 1497 1494 1496 1496 1494 1493 1494 1477 1472 1477 1482 1481 1480 1480 1481 1484 1482 1474 1468 1465 1463 1464 1464 1468 1466 1468 1470 1462 1463 1468 1468 1465 1459 1466 1444 1443 1461 1456 1468 1480 1486 1493
1500 1497 1495 1496 1495 1496 1494 1493 1493 1486 1472 1473 1475 1477 1477 1478 1479 1480 1481 1483 1479 1474 1468 1463 1457 1459 1460 1463 1466 1468 1469 1468 1466 1468 1481 1461 1458 1450 1452 1447 1449 1457 1468 1478 1485
1497 1494 1493 1493 1494 1494 1493 1492 1482 1471 1461 1473 1470 1474 1472 1474 1478 1478 1476 1474 1473 1476 1470 1462 1461 1459 1461 1461 1462 1467 1470 1484 1488 1482 1473 1449 1454 1438 1427 1440 1444 1442 1455 1466 1477
1494 1492 1493 1493 1494 1493 1492 1485 1481 1458 1459 1474 1476 1478 1475 1476 1475 1478 1476 1475 1475 1476 1468 1463 1459 1454 1457 1459 1456 1461 1463 1467 1483 1466 1455 1443 1447 1438 1425 1431 1438 1450 1444 1454 1466
1494 1493 1495 1495 1492 1492 1491 1475 1463 1461 1472 1476 1474 1475 1469 1477 1482 1478 1472 1472 1468 1479 1479 1461 1458 1446 1450 1451 1456 1452 1459 1449 1452 1435 1435 1426 1429 1427 1425 1427 1436 1449 1432 1447 1451
1494 1495 1494 1493 1491 1492 1486 1473 1470 1480 1483 1482 1478 1470 1470 1468 1482 1477 1471 1474 1480 1489 1487 1473 1476 1449 1449 1458 1454 1452 1442 1460 1453 1471 1461 1431 1422 1426 1426 1426 1426 1432 1434 1439 1451
1495 1491 1493 1493 1492 1488 1473 1474 1481 1488 1492 1486 1480 1478 1479 1478 1480 1481 1477 1479 1486 1487 1491 1480 1478 1466 1455 1459 1458 1457 1454 1448 1441 1444 1455 1452 1423 1401 1409 1420 1425 1427 1435 1435 1438
1497 1485 1493 1492 1487 1480 1473 1488 1497 1489 1494 1492 1492 1489 1487 1484 1484 1484 1485 1481 1490 1493 1490 1484 1479 1473 1457 1450 1453 1449 1444 1448 1451 1452 1435 1437 1426 1398 1401 1409 1421 1425 1430 1436 1440
1496 1494 1495 1490 1479 1476 1492 1492 1496 1494 1494 1494 1492 1492 1492 1491 1493 1489 1487 1488 1496 1498 1492 1489 1486 1483 1472 1462 1457 1453 1444 1445 1440 1435 1435 1441 1436 1403 1407 1413 1418 1423 1429 1433 1436
1499 1488 1494 1497 1498 1492 1492 1496 1494 1502 1499 1502 1499 1497 1495 1492 1490 1491 1493 1490 1497 1499 1502 1503 1490 1480 1465 1466 1463 1454 1454 1448 1444 1444 1439 1428 1425 1411 1416 1421 1425 1424 1425 1427 1431
1504 1505 1506 1498 1501 1501 1500 1503 1503 1503 1505 1503 1500 1502 1505 1501 1497 1497 1493 1492 1497 1499 1503 1502 1492 1481 1475 1471 1471 1469 1461 1453 1454 1450 1456 1435 1430 1420 1414 1419 1423 1425 1428 1428 1430
1507 1510 1508 1507 1510 1504 1509 1510 1512 1514 1514 1505 1505 1507 1507 1505 1503 1504 1506 1504 1495 1496 1495 1494 1492 1486 1482 1475 1474 1474 1468 1467 1464 1460 1460 1453 1442 1426 1428 1426 1424 1425 1429 1431 1435
1516 1515 1511 1517 1513 1514 1518 1521 1519 1520 1518 1518 1518 1515 1511 1511 1509 1505 1501 1502 1505 1499 1497 1496 1497 1497 1480 1472 1470 1470 1462 1461 1458 1454 1454 1455 1445 1439 1437 1439 1438 1431 1431 1434 1441